| time (UTC) | temp C | wind direction | speed KPH | gust KPH | rain 1hr cm | rain 24hr cm | rain mn cm | humidity % | barometer mb |
| 20260507054253 | 6 | 328 | 0.0 | 0.0 | 0.00 | 0.00 | 0.00 | 99 | 1018.6 |
| 20260507053750 | 6 | 328 | 0.0 | 0.0 | 0.00 | 0.00 | 0.00 | 99 | 1018.6 |
| 20260507053248 | 6 | 329 | 0.0 | 0.0 | 0.00 | 0.00 | 0.00 | 99 | 1018.7 |
| 20260507052747 | 6 | 329 | 0.0 | 0.0 | 0.00 | 0.00 | 0.00 | 99 | 1018.7 |
| 20260507052243 | 6 | 329 | 0.0 | 0.0 | 0.00 | 0.00 | 0.00 | 99 | 1018.6 |
| 20260507051741 | 7 | 330 | 0.0 | 0.0 | 0.00 | 0.00 | 0.00 | 99 | 1018.3 |
| 20260507051237 | 6 | 329 | 0.0 | 0.0 | 0.00 | 0.00 | 0.00 | 99 | 1018.4 |
| 20260507050734 | 6 | 329 | 0.0 | 0.0 | 0.00 | 0.00 | 0.00 | 99 | 1018.5 |
| 20260507050231 | 6 | 329 | 0.0 | 0.0 | 0.00 | 0.00 | 0.00 | 99 | 1018.4 |
| 20260507045728 | 6 | 329 | 0.0 | 0.0 | 0.00 | 0.03 | 0.03 | 99 | 1018.4 |
| 20260507045224 | 6 | 329 | 0.0 | 0.0 | 0.00 | 0.03 | 0.03 | 99 | 1018.1 |
| 20260507044722 | 7 | 330 | 0.0 | 0.0 | 0.00 | 0.03 | 0.03 | 99 | 1018.3 |
| 20260507044218 | 7 | 330 | 0.0 | 0.0 | 0.00 | 0.03 | 0.03 | 99 | 1018.2 |
| 20260507043714 | 7 | 330 | 0.0 | 0.0 | 0.00 | 0.03 | 0.03 | 99 | 1018.1 |
| 20260507043211 | 6 | 330 | 0.0 | 0.0 | 0.00 | 0.03 | 0.03 | 99 | 1018.2 |
| 20260507042708 | 6 | 330 | 0.0 | 0.0 | 0.00 | 0.03 | 0.03 | 99 | 1018.2 |
| 20260507042202 | 7 | 330 | 0.0 | 0.0 | 0.00 | 0.03 | 0.03 | 98 | 1018.0 |
| 20260507041700 | 6 | 331 | 0.0 | 0.0 | 0.00 | 0.03 | 0.03 | 98 | 1018.0 |
| 20260507041156 | 7 | 331 | 0.0 | 0.0 | 0.00 | 0.03 | 0.03 | 98 | 1018.1 |
| 20260507040653 | 7 | 331 | 0.0 | 0.0 | 0.00 | 0.03 | 0.03 | 98 | 1017.8 |
| 20260507040150 | 7 | 331 | 0.0 | 0.0 | 0.00 | 0.03 | 0.03 | 98 | 1017.8 |
| 20260507035646 | 7 | 332 | 0.0 | 0.0 | 0.00 | 0.03 | 0.03 | 98 | 1018.0 |
| 20260507035142 | 7 | 332 | 0.0 | 0.0 | 0.00 | 0.03 | 0.03 | 98 | 1018.0 |
| 20260507034639 | 7 | 332 | 0.0 | 0.0 | 0.00 | 0.03 | 0.03 | 98 | 1017.9 |
| 20260507034136 | 7 | 332 | 0.0 | 0.0 | 0.00 | 0.03 | 0.03 | 98 | 1017.8 |
| 20260507033635 | 7 | 333 | 0.0 | 0.0 | 0.00 | 0.03 | 0.03 | 98 | 1017.9 |
| 20260507033131 | 7 | 333 | 0.0 | 0.0 | 0.00 | 0.03 | 0.03 | 98 | 1017.9 |
| 20260507032629 | 8 | 333 | 0.0 | 0.0 | 0.00 | 0.03 | 0.03 | 97 | 1017.8 |
| 20260507032125 | 8 | 333 | 0.0 | 0.0 | 0.00 | 0.03 | 0.03 | 97 | 1017.8 |
| 20260507031622 | 7 | 334 | 0.0 | 0.0 | 0.00 | 0.03 | 0.03 | 97 | 1017.8 |
| 20260507031118 | 8 | 334 | 0.0 | 0.0 | 0.00 | 0.03 | 0.03 | 97 | 1017.8 |
| 20260507030615 | 8 | 334 | 0.0 | 0.0 | 0.00 | 0.03 | 0.03 | 97 | 1017.7 |
| 20260507030113 | 8 | 334 | 0.0 | 0.0 | 0.00 | 0.03 | 0.03 | 97 | 1017.6 |
| 20260507025610 | 8 | 335 | 0.0 | 0.0 | 0.00 | 0.03 | 0.03 | 96 | 1017.6 |
| 20260507025107 | 8 | 335 | 0.0 | 0.0 | 0.00 | 0.03 | 0.03 | 96 | 1017.3 |
| 20260507024605 | 8 | 336 | 0.0 | 0.0 | 0.00 | 0.03 | 0.03 | 96 | 1017.4 |
| 20260507024102 | 8 | 336 | 0.0 | 0.0 | 0.00 | 0.03 | 0.03 | 96 | 1017.4 |
| 20260507023557 | 8 | 336 | 0.0 | 0.0 | 0.00 | 0.03 | 0.03 | 95 | 1017.2 |
| 20260507023055 | 8 | 336 | 0.0 | 0.0 | 0.00 | 0.03 | 0.03 | 95 | 1017.1 |
| 20260507022551 | 9 | 337 | 0.0 | 0.0 | 0.00 | 0.03 | 0.03 | 95 | 1017.3 |
| 20260507022046 | 8 | 337 | 0.0 | 0.0 | 0.00 | 0.03 | 0.03 | 95 | 1017.1 |
| 20260507021543 | 9 | 337 | 0.0 | 0.0 | 0.00 | 0.03 | 0.03 | 94 | 1017.1 |
| 20260507021039 | 9 | 338 | 0.0 | 0.0 | 0.00 | 0.03 | 0.03 | 94 | 1017.1 |
| 20260507020538 | 9 | 338 | 0.0 | 0.0 | 0.00 | 0.03 | 0.03 | 93 | 1017.1 |
| 20260507020034 | 9 | 339 | 0.0 | 0.0 | 0.00 | 0.03 | 0.03 | 93 | 1016.8 |
| 20260507015532 | 10 | 339 | 0.0 | 0.0 | 0.00 | 0.03 | 0.03 | 93 | 1016.6 |
| 20260507015029 | 10 | 339 | 0.0 | 0.0 | 0.00 | 0.03 | 0.03 | 92 | 1016.6 |
| 20260507014526 | 10 | 340 | 0.0 | 0.0 | 0.00 | 0.03 | 0.03 | 91 | 1016.8 |
| 20260507014021 | 10 | 340 | 0.0 | 0.0 | 0.00 | 0.03 | 0.03 | 91 | 1016.8 |
| 20260507013518 | 10 | 341 | 0.0 | 0.0 | 0.00 | 0.03 | 0.03 | 89 | 1016.6 |
| 20260507013016 | 11 | 341 | 0.0 | 1.6 | 0.00 | 0.03 | 0.03 | 89 | 1016.5 |
| 20260507012513 | 11 | 342 | 0.0 | 0.0 | 0.00 | 0.03 | 0.03 | 87 | 1016.6 |
| 20260507012009 | 11 | 343 | 0.0 | 0.0 | 0.00 | 0.03 | 0.03 | 86 | 1016.3 |
| 20260507011506 | 11 | 343 | 0.0 | 0.0 | 0.00 | 0.03 | 0.03 | 85 | 1016.5 |
| 20260507011002 | 12 | 343 | 0.0 | 0.0 | 0.00 | 0.03 | 0.03 | 84 | 1016.2 |
| 20260507010456 | 12 | 344 | 0.0 | 0.0 | 0.00 | 0.03 | 0.03 | 83 | 1016.1 |
| 20260507005954 | 12 | 344 | 0.0 | 0.0 | 0.00 | 0.03 | 0.03 | 81 | 1016.2 |
| 20260507005451 | 13 | 345 | 0.0 | 0.0 | 0.00 | 0.03 | 0.03 | 79 | 1016.3 |
| 20260507004947 | 13 | 346 | 0.0 | 0.0 | 0.00 | 0.03 | 0.03 | 77 | 1016.2 |
| 20260507004444 | 13 | 349 | 0.0 | 0.0 | 0.00 | 0.03 | 0.03 | 75 | 1016.2 |
| 20260507003942 | 13 | 350 | 0.0 | 0.0 | 0.00 | 0.03 | 0.03 | 75 | 1016.5 |
| 20260507003437 | 13 | 353 | 0.0 | 0.0 | 0.00 | 0.03 | 0.03 | 76 | 1016.4 |
| 20260507002932 | 13 | 357 | 0.0 | 0.0 | 0.00 | 0.03 | 0.03 | 76 | 1016.4 |
| 20260507002428 | 13 | 3 | 0.0 | 0.0 | 0.00 | 0.03 | 0.03 | 76 | 1016.1 |
| 20260507001926 | 13 | 10 | 0.0 | 0.0 | 0.00 | 0.03 | 0.03 | 75 | 1016.2 |
| 20260507001422 | 13 | 16 | 0.0 | 0.0 | 0.00 | 0.03 | 0.03 | 74 | 1016.1 |
| 20260507000920 | 13 | 23 | 0.0 | 0.0 | 0.00 | 0.03 | 0.03 | 73 | 1016.2 |
| 20260507000415 | 14 | 29 | 0.0 | 0.0 | 0.00 | 0.03 | 0.03 | 72 | 1016.2 |
| 20260506235911 | 14 | 38 | 0.0 | 0.0 | 0.00 | 0.03 | 0.03 | 70 | 1015.9 |
| 20260506235409 | 14 | 9 | 1.6 | 1.6 | 0.00 | 0.03 | 0.03 | 70 | 1016.2 |
| 20260506234904 | 15 | 37 | 0.0 | 3.2 | 0.00 | 0.03 | 0.03 | 69 | 1016.2 |
| 20260506234402 | 15 | 337 | 0.0 | 1.6 | 0.00 | 0.03 | 0.03 | 70 | 1016.0 |
| 20260506233859 | 15 | 344 | 0.0 | 1.6 | 0.00 | 0.03 | 0.03 | 69 | 1016.1 |
| 20260506233355 | 15 | 347 | 0.0 | 0.0 | 0.00 | 0.03 | 0.03 | 70 | 1016.0 |
| 20260506232852 | 15 | 356 | 0.0 | 1.6 | 0.00 | 0.03 | 0.03 | 69 | 1016.1 |
| 20260506232348 | 15 | 7 | 0.0 | 1.6 | 0.00 | 0.03 | 0.03 | 69 | 1016.1 |
| 20260506231844 | 15 | 348 | 0.0 | 3.2 | 0.00 | 0.03 | 0.03 | 68 | 1016.0 |
| 20260506231342 | 15 | 104 | 3.2 | 3.2 | 0.00 | 0.03 | 0.03 | 68 | 1016.0 |
| 20260506230839 | 15 | 134 | 0.0 | 0.0 | 0.00 | 0.03 | 0.03 | 69 | 1015.9 |
| 20260506230336 | 15 | 2 | 0.0 | 3.2 | 0.00 | 0.03 | 0.03 | 68 | 1016.1 |
| 20260506225832 | 15 | 44 | 0.0 | 1.6 | 0.00 | 0.03 | 0.03 | 67 | 1015.9 |
| 20260506225330 | 15 | 328 | 4.8 | 4.8 | 0.00 | 0.03 | 0.03 | 66 | 1015.8 |
| 20260506224827 | 15 | 351 | 0.0 | 0.0 | 0.00 | 0.03 | 0.03 | 68 | 1015.8 |
| 20260506224324 | 15 | 359 | 3.2 | 8.0 | 0.00 | 0.03 | 0.03 | 66 | 1015.8 |
| 20260506223820 | 15 | 42 | 4.8 | 8.0 | 0.00 | 0.03 | 0.03 | 64 | 1015.8 |
| 20260506223315 | 15 | 44 | 4.8 | 8.0 | 0.00 | 0.03 | 0.03 | 65 | 1015.5 |
| 20260506222813 | 15 | 4 | 0.0 | 4.8 | 0.00 | 0.03 | 0.03 | 65 | 1015.3 |
| 20260506222308 | 15 | 63 | 4.8 | 11.3 | 0.00 | 0.03 | 0.03 | 64 | 1015.3 |
| 20260506221806 | 15 | 327 | 3.2 | 9.7 | 0.00 | 0.03 | 0.03 | 64 | 1015.1 |
| 20260506221304 | 16 | 72 | 1.6 | 9.7 | 0.00 | 0.03 | 0.03 | 67 | 1015.2 |
| 20260506220801 | 15 | 67 | 4.8 | 11.3 | 0.00 | 0.03 | 0.03 | 65 | 1015.0 |
| 20260506220256 | 15 | 337 | 1.6 | 4.8 | 0.00 | 0.03 | 0.03 | 66 | 1014.8 |
| 20260506215753 | 15 | 308 | 3.2 | 3.2 | 0.00 | 0.03 | 0.03 | 67 | 1014.9 |
| 20260506215248 | 15 | 340 | 4.8 | 11.3 | 0.00 | 0.03 | 0.03 | 66 | 1014.6 |
| 20260506214745 | 15 | 21 | 1.6 | 4.8 | 0.00 | 0.03 | 0.03 | 68 | 1014.4 |
| 20260506214242 | 15 | 6 | 4.8 | 11.3 | 0.00 | 0.03 | 0.03 | 68 | 1014.4 |
| 20260506213740 | 15 | 329 | 8.0 | 9.7 | 0.00 | 0.03 | 0.03 | 66 | 1014.6 |
| 20260506213232 | 15 | 75 | 3.2 | 9.7 | 0.00 | 0.03 | 0.03 | 66 | 1014.5 |
| 20260506212729 | 15 | 313 | 8.0 | 11.3 | 0.00 | 0.03 | 0.03 | 67 | 1014.4 |
| 20260506212224 | 15 | 40 | 3.2 | 9.7 | 0.00 | 0.03 | 0.03 | 65 | 1014.7 |
| 20260506211720 | 15 | 47 | 4.8 | 14.5 | 0.00 | 0.03 | 0.03 | 66 | 1014.7 |
| 20260506211216 | 15 | 25 | 8.0 | 11.3 | 0.00 | 0.03 | 0.03 | 65 | 1015.1 |
| 20260506210713 | 15 | 50 | 1.6 | 8.0 | 0.00 | 0.03 | 0.03 | 66 | 1015.2 |
| 20260506210210 | 15 | 321 | 6.4 | 12.9 | 0.00 | 0.03 | 0.03 | 65 | 1015.2 |
| 20260506205707 | 14 | 46 | 3.2 | 16.1 | 0.00 | 0.03 | 0.03 | 66 | 1015.1 |
| 20260506205202 | 14 | 324 | 3.2 | 9.7 | 0.00 | 0.03 | 0.03 | 65 | 1015.2 |
| 20260506204700 | 15 | 320 | 9.7 | 12.9 | 0.00 | 0.03 | 0.03 | 65 | 1015.4 |
| 20260506204156 | 14 | 59 | 3.2 | 16.1 | 0.00 | 0.03 | 0.03 | 65 | 1015.4 |
| 20260506203655 | 14 | 57 | 6.4 | 11.3 | 0.00 | 0.03 | 0.03 | 63 | 1015.3 |
| 20260506203152 | 14 | 51 | 6.4 | 17.7 | 0.00 | 0.03 | 0.03 | 63 | 1015.2 |
| 20260506202650 | 15 | 35 | 8.0 | 11.3 | 0.00 | 0.03 | 0.03 | 63 | 1015.3 |
| 20260506202145 | 15 | 320 | 9.7 | 12.9 | 0.00 | 0.03 | 0.03 | 62 | 1015.4 |
| 20260506201642 | 15 | 51 | 8.0 | 14.5 | 0.00 | 0.03 | 0.03 | 62 | 1015.7 |
| 20260506201139 | 15 | 82 | 4.8 | 12.9 | 0.00 | 0.03 | 0.03 | 62 | 1015.9 |
| 20260506200636 | 15 | 0 | 4.8 | 12.9 | 0.00 | 0.03 | 0.03 | 61 | 1015.9 |
| 20260506200132 | 15 | 53 | 9.7 | 24.1 | 0.00 | 0.03 | 0.03 | 60 | 1016.0 |
| 20260506195629 | 15 | 25 | 9.7 | 16.1 | 0.00 | 0.03 | 0.03 | 60 | 1016.0 |
| 20260506195125 | 15 | 113 | 1.6 | 9.7 | 0.00 | 0.03 | 0.03 | 64 | 1016.3 |
| 20260506194623 | 15 | 350 | 6.4 | 17.7 | 0.00 | 0.03 | 0.03 | 61 | 1016.4 |
| 20260506194119 | 15 | 77 | 4.8 | 4.8 | 0.00 | 0.03 | 0.03 | 66 | 1016.1 |
| 20260506193617 | 15 | 358 | 6.4 | 11.3 | 0.00 | 0.03 | 0.03 | 67 | 1016.0 |
| 20260506193114 | 15 | 57 | 11.3 | 14.5 | 0.00 | 0.03 | 0.03 | 67 | 1016.3 |
| 20260506192611 | 15 | 34 | 6.4 | 11.3 | 0.00 | 0.03 | 0.03 | 67 | 1016.4 |
| 20260506192107 | 14 | 28 | 3.2 | 16.1 | 0.00 | 0.03 | 0.03 | 69 | 1016.4 |
| 20260506191603 | 14 | 47 | 8.0 | 14.5 | 0.00 | 0.03 | 0.03 | 66 | 1016.4 |
| 20260506191059 | 14 | 33 | 1.6 | 8.0 | 0.00 | 0.03 | 0.03 | 68 | 1017.0 |
| 20260506190557 | 14 | 61 | 4.8 | 9.7 | 0.00 | 0.03 | 0.03 | 70 | 1016.8 |
| 20260506190054 | 14 | 42 | 4.8 | 12.9 | 0.00 | 0.03 | 0.03 | 70 | 1017.1 |
| 20260506185551 | 13 | 65 | 3.2 | 11.3 | 0.00 | 0.03 | 0.03 | 71 | 1016.9 |
| 20260506185047 | 13 | 332 | 4.8 | 8.0 | 0.00 | 0.03 | 0.03 | 72 | 1017.0 |
| 20260506184545 | 14 | 12 | 1.6 | 12.9 | 0.00 | 0.03 | 0.03 | 70 | 1017.1 |
| 20260506184042 | 13 | 332 | 6.4 | 12.9 | 0.00 | 0.03 | 0.03 | 73 | 1016.8 |
| 20260506183538 | 13 | 27 | 4.8 | 9.7 | 0.00 | 0.03 | 0.03 | 72 | 1017.0 |
| 20260506183034 | 13 | 20 | 4.8 | 17.7 | 0.00 | 0.03 | 0.03 | 71 | 1016.9 |
| 20260506182532 | 13 | 353 | 6.4 | 17.7 | 0.00 | 0.03 | 0.03 | 71 | 1016.8 |
| 20260506182029 | 13 | 333 | 6.4 | 12.9 | 0.00 | 0.03 | 0.03 | 72 | 1016.9 |
| 20260506181527 | 13 | 303 | 6.4 | 11.3 | 0.00 | 0.03 | 0.03 | 73 | 1017.0 |
| 20260506181023 | 13 | 347 | 1.6 | 8.0 | 0.00 | 0.03 | 0.03 | 74 | 1017.2 |
| 20260506180520 | 13 | 353 | 4.8 | 9.7 | 0.00 | 0.03 | 0.03 | 72 | 1017.2 |
| 20260506180017 | 13 | 38 | 8.0 | 12.9 | 0.00 | 0.03 | 0.03 | 68 | 1017.1 |
| 20260506175513 | 13 | 45 | 8.0 | 12.9 | 0.00 | 0.03 | 0.03 | 69 | 1017.2 |
| 20260506175010 | 12 | 33 | 4.8 | 8.0 | 0.00 | 0.03 | 0.03 | 71 | 1017.3 |
| 20260506174508 | 13 | 22 | 6.4 | 9.7 | 0.00 | 0.03 | 0.03 | 71 | 1017.4 |
| 20260506174004 | 13 | 334 | 3.2 | 12.9 | 0.00 | 0.03 | 0.03 | 71 | 1017.2 |
| 20260506173502 | 13 | 355 | 11.3 | 14.5 | 0.00 | 0.03 | 0.03 | 70 | 1017.6 |
| 20260506172958 | 13 | 51 | 8.0 | 12.9 | 0.00 | 0.03 | 0.03 | 72 | 1017.4 |
| 20260506172456 | 13 | 106 | 6.4 | 9.7 | 0.00 | 0.03 | 0.03 | 69 | 1017.7 |
| 20260506171952 | 13 | 0 | 0.0 | 8.0 | 0.00 | 0.03 | 0.03 | 72 | 1017.9 |
| 20260506171449 | 13 | 331 | 3.2 | 8.0 | 0.00 | 0.03 | 0.03 | 73 | 1018.2 |
| 20260506170947 | 12 | 82 | 3.2 | 9.7 | 0.00 | 0.03 | 0.03 | 71 | 1017.8 |
| 20260506170443 | 12 | 25 | 6.4 | 8.0 | 0.00 | 0.03 | 0.03 | 72 | 1018.1 |
| 20260506165936 | 12 | 23 | 0.0 | 4.8 | 0.00 | 0.03 | 0.03 | 74 | 1018.2 |
| 20260506165434 | 12 | 17 | 3.2 | 4.8 | 0.00 | 0.03 | 0.03 | 75 | 1017.9 |
| 20260506164924 | 12 | 44 | 3.2 | 3.2 | 0.00 | 0.03 | 0.03 | 75 | 1018.0 |
| 20260506164421 | 12 | 58 | 0.0 | 4.8 | 0.00 | 0.03 | 0.03 | 74 | 1018.1 |
| 20260506163919 | 12 | 28 | 0.0 | 4.8 | 0.00 | 0.03 | 0.03 | 75 | 1018.0 |
| 20260506163413 | 11 | 53 | 3.2 | 4.8 | 0.00 | 0.03 | 0.03 | 75 | 1017.8 |
| 20260506162908 | 11 | 108 | 4.8 | 11.3 | 0.00 | 0.03 | 0.03 | 74 | 1017.8 |
| 20260506162406 | 11 | 93 | 3.2 | 9.7 | 0.00 | 0.03 | 0.03 | 73 | 1017.8 |
| 20260506161858 | 12 | 126 | 14.5 | 16.1 | 0.00 | 0.03 | 0.03 | 72 | 1017.4 |
| 20260506161356 | 12 | 13 | 3.2 | 11.3 | 0.00 | 0.03 | 0.03 | 72 | 1017.5 |
| 20260506160853 | 12 | 72 | 4.8 | 9.7 | 0.00 | 0.03 | 0.03 | 73 | 1017.2 |
| 20260506160350 | 12 | 39 | 9.7 | 11.3 | 0.00 | 0.03 | 0.03 | 74 | 1017.0 |
| 20260506155848 | 11 | 9 | 1.6 | 11.3 | 0.00 | 0.03 | 0.03 | 74 | 1017.3 |
| 20260506155345 | 11 | 76 | 12.9 | 16.1 | 0.00 | 0.03 | 0.03 | 75 | 1016.9 |
| 20260506153502 | 10 | 31 | 8.0 | 14.5 | 0.00 | 0.03 | 0.03 | 78 | 1016.4 |
| 20260506153000 | 10 | 26 | 4.8 | 9.7 | 0.00 | 0.03 | 0.03 | 79 | 1016.4 |
| 20260506152456 | 10 | 36 | 4.8 | 4.8 | 0.00 | 0.03 | 0.03 | 80 | 1016.5 |
| 20260506151954 | 10 | 27 | 4.8 | 14.5 | 0.00 | 0.03 | 0.03 | 80 | 1016.5 |
| 20260506151452 | 10 | 42 | 4.8 | 8.0 | 0.00 | 0.03 | 0.03 | 81 | 1016.6 |
| 20260506150949 | 10 | 84 | 4.8 | 9.7 | 0.00 | 0.03 | 0.03 | 80 | 1016.6 |
| 20260506150445 | 10 | 45 | 8.0 | 12.9 | 0.00 | 0.03 | 0.03 | 80 | 1016.9 |
| 20260506145942 | 10 | 342 | 3.2 | 9.7 | 0.00 | 0.03 | 0.03 | 81 | 1017.0 |
| 20260506145438 | 10 | 338 | 3.2 | 11.3 | 0.00 | 0.03 | 0.03 | 81 | 1016.6 |
| 20260506144936 | 10 | 41 | 9.7 | 14.5 | 0.00 | 0.03 | 0.03 | 80 | 1016.6 |
| 20260506144432 | 10 | 41 | 6.4 | 11.3 | 0.00 | 0.03 | 0.03 | 80 | 1016.6 |
| 20260506143931 | 10 | 25 | 0.0 | 11.3 | 0.00 | 0.03 | 0.03 | 81 | 1016.5 |
| 20260506143428 | 10 | 2 | 8.0 | 9.7 | 0.00 | 0.03 | 0.03 | 81 | 1016.4 |
| 20260506142926 | 10 | 54 | 4.8 | 14.5 | 0.00 | 0.03 | 0.03 | 80 | 1016.6 |
| 20260506142424 | 10 | 73 | 4.8 | 17.7 | 0.00 | 0.03 | 0.03 | 81 | 1016.4 |
| 20260506141921 | 10 | 104 | 12.9 | 22.5 | 0.00 | 0.03 | 0.03 | 81 | 1016.4 |
| 20260506141419 | 10 | 31 | 6.4 | 11.3 | 0.00 | 0.03 | 0.03 | 82 | 1016.2 |
| 20260506140918 | 10 | 69 | 6.4 | 12.9 | 0.00 | 0.03 | 0.03 | 82 | 1016.3 |
| 20260506140414 | 9 | 69 | 8.0 | 11.3 | 0.00 | 0.03 | 0.03 | 82 | 1016.0 |
| 20260506135911 | 9 | 54 | 8.0 | 11.3 | 0.00 | 0.03 | 0.03 | 83 | 1016.1 |
| 20260506135408 | 9 | 41 | 4.8 | 12.9 | 0.00 | 0.03 | 0.03 | 82 | 1016.0 |
| 20260506134904 | 9 | 50 | 1.6 | 9.7 | 0.00 | 0.03 | 0.03 | 83 | 1016.0 |
| 20260506134400 | 9 | 32 | 4.8 | 14.5 | 0.00 | 0.03 | 0.03 | 83 | 1015.9 |
| 20260506133857 | 9 | 34 | 9.7 | 16.1 | 0.00 | 0.03 | 0.03 | 82 | 1016.1 |
| 20260506133354 | 9 | 291 | 4.8 | 14.5 | 0.00 | 0.03 | 0.03 | 82 | 1016.1 |
| 20260506132850 | 9 | 22 | 4.8 | 17.7 | 0.00 | 0.03 | 0.03 | 82 | 1016.1 |
| 20260506132348 | 9 | 328 | 3.2 | 11.3 | 0.00 | 0.03 | 0.03 | 82 | 1016.0 |
| 20260506131846 | 9 | 5 | 4.8 | 9.7 | 0.00 | 0.03 | 0.03 | 82 | 1016.4 |
| 20260506131342 | 9 | 6 | 9.7 | 14.5 | 0.00 | 0.03 | 0.03 | 82 | 1016.3 |
| 20260506130839 | 9 | 33 | 1.6 | 12.9 | 0.00 | 0.03 | 0.03 | 83 | 1016.5 |
| 20260506130335 | 8 | 9 | 0.0 | 8.0 | 0.00 | 0.03 | 0.03 | 83 | 1016.6 |
| 20260506125833 | 8 | 54 | 1.6 | 4.8 | 0.00 | 0.03 | 0.03 | 84 | 1016.4 |
| 20260506125332 | 8 | 17 | 1.6 | 12.9 | 0.00 | 0.03 | 0.03 | 84 | 1016.6 |
| 20260506124830 | 8 | 43 | 4.8 | 12.9 | 0.00 | 0.03 | 0.03 | 84 | 1016.4 |
| 20260506124326 | 8 | 30 | 3.2 | 16.1 | 0.00 | 0.03 | 0.03 | 85 | 1016.2 |
| 20260506123824 | 8 | 9 | 4.8 | 4.8 | 0.00 | 0.03 | 0.03 | 85 | 1016.0 |
| 20260506123322 | 8 | 338 | 3.2 | 11.3 | 0.00 | 0.03 | 0.03 | 85 | 1016.2 |
| 20260506122819 | 8 | 15 | 4.8 | 9.7 | 0.00 | 0.03 | 0.03 | 85 | 1015.8 |
| 20260506122316 | 8 | 359 | 1.6 | 8.0 | 0.00 | 0.03 | 0.03 | 85 | 1015.9 |
| 20260506121814 | 8 | 8 | 6.4 | 14.5 | 0.00 | 0.03 | 0.03 | 85 | 1015.6 |
| 20260506121311 | 8 | 13 | 3.2 | 12.9 | 0.00 | 0.03 | 0.03 | 85 | 1015.4 |
| 20260506120808 | 8 | 316 | 6.4 | 11.3 | 0.00 | 0.03 | 0.03 | 86 | 1015.2 |
| 20260506120306 | 8 | 37 | 3.2 | 11.3 | 0.00 | 0.03 | 0.03 | 86 | 1015.2 |
| 20260506115803 | 8 | 42 | 6.4 | 11.3 | 0.00 | 0.03 | 0.03 | 86 | 1015.1 |
| 20260506115306 | 8 | 336 | 4.8 | 11.3 | 0.00 | 0.03 | 0.03 | 86 | 1015.1 |
| 20260506114759 | 8 | 44 | 1.6 | 3.2 | 0.00 | 0.03 | 0.03 | 85 | 1015.1 |
| 20260506114256 | 8 | 348 | 3.2 | 8.0 | 0.00 | 0.03 | 0.03 | 83 | 1015.2 |
| 20260506113755 | 8 | 34 | 1.6 | 4.8 | 0.00 | 0.03 | 0.03 | 83 | 1014.7 |
| 20260506113252 | 8 | 20 | 3.2 | 14.5 | 0.00 | 0.03 | 0.03 | 83 | 1014.6 |
| 20260506112748 | 8 | 23 | 3.2 | 8.0 | 0.00 | 0.03 | 0.03 | 83 | 1014.8 |
| 20260506112246 | 8 | 50 | 3.2 | 4.8 | 0.00 | 0.03 | 0.03 | 82 | 1014.7 |
| 20260506111743 | 8 | 20 | 3.2 | 9.7 | 0.00 | 0.03 | 0.03 | 82 | 1014.5 |
| 20260506111241 | 8 | 288 | 6.4 | 11.3 | 0.00 | 0.03 | 0.03 | 82 | 1014.2 |
| 20260506110738 | 8 | 15 | 4.8 | 17.7 | 0.00 | 0.03 | 0.03 | 82 | 1014.3 |
| 20260506110236 | 8 | 47 | 1.6 | 8.0 | 0.00 | 0.03 | 0.03 | 83 | 1014.2 |
| 20260506105732 | 8 | 1 | 12.9 | 17.7 | 0.00 | 0.03 | 0.03 | 82 | 1014.3 |
| 20260506105229 | 8 | 7 | 3.2 | 12.9 | 0.00 | 0.03 | 0.03 | 83 | 1014.0 |
| 20260506104727 | 8 | 340 | 4.8 | 11.3 | 0.00 | 0.03 | 0.03 | 82 | 1014.0 |
| 20260506104224 | 8 | 28 | 3.2 | 9.7 | 0.00 | 0.03 | 0.03 | 82 | 1014.1 |
| 20260506103721 | 9 | 60 | 3.2 | 8.0 | 0.00 | 0.03 | 0.03 | 82 | 1014.1 |
| 20260506103218 | 9 | 319 | 4.8 | 12.9 | 0.00 | 0.03 | 0.03 | 82 | 1013.6 |
| 20260506102716 | 9 | 353 | 1.6 | 4.8 | 0.00 | 0.03 | 0.03 | 82 | 1013.6 |
| 20260506102214 | 9 | 344 | 3.2 | 9.7 | 0.00 | 0.03 | 0.03 | 82 | 1013.4 |
| 20260506101710 | 9 | 317 | 6.4 | 11.3 | 0.00 | 0.03 | 0.03 | 81 | 1013.2 |
| 20260506101207 | 9 | 27 | 4.8 | 8.0 | 0.00 | 0.03 | 0.03 | 82 | 1013.2 |
| 20260506100705 | 9 | 45 | 8.0 | 14.5 | 0.00 | 0.03 | 0.03 | 81 | 1013.1 |
| 20260506100203 | 8 | 296 | 6.4 | 17.7 | 0.00 | 0.03 | 0.03 | 82 | 1012.9 |
| 20260506095701 | 9 | 18 | 3.2 | 12.9 | 0.00 | 0.03 | 0.03 | 83 | 1012.9 |
| 20260506095158 | 8 | 348 | 6.4 | 17.7 | 0.00 | 0.03 | 0.03 | 84 | 1012.5 |
| 20260506094655 | 8 | 304 | 6.4 | 14.5 | 0.00 | 0.03 | 0.03 | 84 | 1012.6 |
| 20260506094153 | 8 | 107 | 3.2 | 8.0 | 0.00 | 0.03 | 0.03 | 85 | 1012.6 |
| 20260506093651 | 8 | 353 | 4.8 | 12.9 | 0.00 | 0.03 | 0.03 | 86 | 1012.2 |
| 20260506093148 | 8 | 112 | 8.0 | 14.5 | 0.00 | 0.03 | 0.03 | 87 | 1012.2 |
| 20260506092646 | 8 | 70 | 3.2 | 16.1 | 0.00 | 0.03 | 0.03 | 88 | 1011.9 |
| 20260506092143 | 8 | 3 | 1.6 | 9.7 | 0.00 | 0.03 | 0.03 | 88 | 1011.7 |
| 20260506091640 | 8 | 42 | 3.2 | 11.3 | 0.00 | 0.03 | 0.03 | 89 | 1011.7 |
| 20260506091137 | 8 | 34 | 6.4 | 11.3 | 0.00 | 0.03 | 0.03 | 90 | 1011.7 |
| 20260506090636 | 8 | 67 | 4.8 | 11.3 | 0.00 | 0.03 | 0.03 | 91 | 1012.0 |
| 20260506090132 | 8 | 27 | 4.8 | 12.9 | 0.00 | 0.03 | 0.03 | 92 | 1011.9 |
| 20260506085629 | 8 | 41 | 6.4 | 11.3 | 0.00 | 0.03 | 0.03 | 92 | 1012.1 |
| 20260506085125 | 8 | 55 | 0.0 | 8.0 | 0.00 | 0.03 | 0.03 | 92 | 1012.0 |
| 20260506084622 | 8 | 63 | 4.8 | 8.0 | 0.00 | 0.03 | 0.03 | 92 | 1012.2 |
| 20260506084119 | 8 | 30 | 4.8 | 12.9 | 0.00 | 0.03 | 0.03 | 92 | 1012.1 |
| 20260506083616 | 8 | 334 | 4.8 | 11.3 | 0.00 | 0.03 | 0.03 | 93 | 1012.1 |
| 20260506083113 | 8 | 4 | 4.8 | 4.8 | 0.00 | 0.03 | 0.03 | 93 | 1011.9 |
| 20260506082610 | 8 | 49 | 3.2 | 4.8 | 0.00 | 0.03 | 0.03 | 93 | 1012.1 |
| 20260506082105 | 8 | 340 | 3.2 | 12.9 | 0.00 | 0.03 | 0.03 | 93 | 1012.0 |
| 20260506081604 | 8 | 39 | 4.8 | 14.5 | 0.00 | 0.03 | 0.03 | 93 | 1011.7 |
| 20260506081101 | 8 | 3 | 4.8 | 16.1 | 0.00 | 0.03 | 0.03 | 93 | 1011.8 |
| 20260506080559 | 8 | 57 | 4.8 | 11.3 | 0.00 | 0.03 | 0.03 | 93 | 1011.8 |
| 20260506073039 | 8 | 42 | 4.8 | 9.7 | 0.00 | 0.03 | 0.03 | 94 | 1011.6 |
| 20260506072536 | 8 | 345 | 11.3 | 16.1 | 0.00 | 0.03 | 0.03 | 94 | 1011.4 |
| 20260506072034 | 8 | 30 | 8.0 | 14.5 | 0.00 | 0.03 | 0.03 | 94 | 1011.2 |
| 20260506071531 | 8 | 19 | 6.4 | 16.1 | 0.00 | 0.03 | 0.03 | 94 | 1011.5 |
| 20260506071028 | 8 | 304 | 9.7 | 12.9 | 0.00 | 0.03 | 0.03 | 95 | 1011.3 |
| 20260506070526 | 8 | 31 | 0.0 | 8.0 | 0.00 | 0.03 | 0.03 | 95 | 1011.8 |
| 20260506062503 | 8 | 20 | 6.4 | 11.3 | 0.13 | 0.03 | 0.03 | 97 | 1011.6 |
| 20260506061959 | 8 | 32 | 4.8 | 12.9 | 0.13 | 0.03 | 0.03 | 97 | 1011.3 |
| 20260506061455 | 8 | 345 | 3.2 | 8.0 | 0.00 | 0.00 | 0.00 | 97 | 1011.6 |
| 20260506060953 | 8 | 60 | 1.6 | 16.1 | 0.00 | 0.00 | 0.00 | 97 | 1011.4 |
| 20260506060451 | 8 | 314 | 4.8 | 12.9 | 0.00 | 0.00 | 0.00 | 97 | 1011.5 |